Flag for Dominican Republic Weather for the Past 2 Weeks in Santiago de los Caballeros, Dominican Republic

Now
72 °F

Fog.


Feels Like: 65 °F
Forecast: 74 / 91 °F
Wind: 5 mph from East

Location: Santiago

Current Time: May 5, 2016 at 7:23:48 AM

Latest Report: May 5, 2016 at 7:00 AM


Visibility: 2 mi

Pressure: 29.92 "Hg

Humidity: 100%

Dew Point: 72 °F

Location of Santiago de los CaballerosLocation

Historic Weather in Santiago de los Caballeros — Graph

°F

Santiago de los Caballeros Temperature Yesterday

Maximum temperature yesterday: 88 °F (at 2:00 PM)
Minimum temperature yesterday: 73 °F (at 2:00 AM)
Average temperature yesterday: 78 °F

High & Low Weather Summary for the Past Weeks

 TemperatureHumidityPressure
High93 °F (Apr 23, 2:00 PM)100% (Apr 21, 5:00 AM)30.04 "Hg (Apr 21, 5:00 AM)
Low68 °F (May 1, 6:00 AM)46% (Apr 22, 1:00 PM)29.80 "Hg (Apr 23, 6:00 PM)
Average77 °F83%29.93 "Hg
* Reported Apr 20 6:00 AM — May 5 6:00 AM, Santiago de los Caballeros, Weather by CustomWeather, © 2016

Note: Actual official high and low records may vary slightly from our data, if they occured in-between our weather recording intervals... More about our weather records

Advertising

Santiago de los Caballeros Weather History for the Previous 24 Hours

Scroll right to see more
 ConditionsComfort  
Time TempWeatherWind HumidityBarometerVisibility
6:00 AM
Thu, May 5
72 °FPassing clouds.No wind100%30.01 "HgN/A
5:00 AM73 °FPassing clouds.No wind94%29.89 "HgN/A
4:00 AM73 °FPassing clouds.No wind94%29.89 "HgN/A
3:00 AM73 °FPassing clouds.No wind94%29.92 "HgN/A
2:00 AM73 °FPassing clouds.No wind94%29.92 "HgN/A
1:00 AM73 °FPassing clouds.7 mph94%29.95 "HgN/A
12:00 AM73 °FPassing clouds.No wind94%29.95 "HgN/A
11:00 PM
Wed, May 4
73 °FPassing clouds.No wind94%29.95 "HgN/A
10:00 PM73 °FPassing clouds.No wind94%29.92 "HgN/A
9:00 PM75 °FPassing clouds.No wind94%29.92 "HgN/A
8:00 PM77 °FThunderstorms. Passing clouds.No wind83%29.92 "HgN/A
7:00 PM81 °FThundershowers. Partly sunny.No wind79%29.89 "HgN/A
6:00 PM81 °FThundershowers. Partly sunny.No wind79%29.86 "HgN/A
5:00 PM82 °FThunderstorms. Partly sunny.5 mph79%29.86 "Hg4 mi
4:00 PM84 °FLight rain. Partly sunny.12 mph62%29.89 "Hg4 mi
3:00 PM86 °FScattered clouds.6 mph62%29.86 "HgN/A
2:00 PM88 °FPartly sunny.14 mph62%29.89 "HgN/A
1:00 PM86 °FPartly sunny.12 mph62%29.92 "HgN/A
12:00 PM84 °FPartly sunny.17 mph66%29.95 "HgN/A
11:00 AM84 °FScattered clouds.7 mph70%30.01 "HgN/A
9:00 AM77 °FPartly sunny.6 mph89%30.01 "HgN/A
8:00 AM73 °FPartly sunny.9 mph94%29.98 "HgN/A
7:00 AM73 °FPartly sunny.9 mph94%29.98 "HgN/A
Weather by CustomWeather, © 2016

See weather overviewHow to use our weather pages